Regional Weather Roundup
Issued by NWS

Home | Current Version | Previous Version | Graphics & Text | Print | Product List | Glossary On
Versions: 1 2 3 4 5 6 7 8 9 10 11 12 13 14 15 16 17 18 19 20 21 22 23 24 25 26 27 28 29 30 31 32 33 34 35 36 37 38 39 40 41 42 43 44 45 46 47 48 49 50
000
ASUS43 KLOT 262006
RWRIL

ILLINOIS REGIONAL WEATHER ROUNDUP
NATIONAL WEATHER SERVICE CHICAGO/ROMEOVILLE IL
200 PM CST THU FEB 26 2015

NOTE: "FAIR" INDICATES FEW OR NO CLOUDS BELOW 12,000 FEET WITH NO
SIGNIFICANT WEATHER AND/OR OBSTRUCTIONS TO VISIBILITY.

* THESE STATIONS ARE NOT UNDER NWS QUALITY CONTROL. THEY ALSO MAY NOT
  REPORT WEATHER SUCH AS PRECIPITATION OR FOG.

ILZ001-002-007-009-015-016-024-262100-
NORTHWEST ILLINOIS

CITY           SKY/WX    TMP DP  RH WIND       PRES   REMARKS
MOLINE         SUNNY     14   1  56 NW10      30.34R WCI   1
STERLING*      PTSUNNY   12   1  62 N10       30.32R WCI  -1
SAVANNA*       CLOUDY    15  -1  48 N9        30.33R WCI   3
$$

ILZ003-004-008-010-011-017-018-262100-
NORTH CENTRAL ILLINOIS

CITY           SKY/WX    TMP DP  RH WIND       PRES   REMARKS
ROCKFORD       PTSUNNY   13  -1  54 N14       30.31R WCI  -2
FREEPORT*      PTSUNNY   10  -2  58 N9        30.32S WCI  -3
ROCHELLE*      CLOUDY    14   3  61 N16       30.29R WCI  -2
DE KALB*       PTSUNNY   12   1  61 N17       30.27R WCI  -5
PERU*          MOSUNNY   17   7  65 N13       30.30R WCI   3
$$

ILZ005-006-012>014-019>023-262100-
NORTHEAST ILLINOIS

CITY           SKY/WX    TMP DP  RH WIND       PRES   REMARKS
CHICAGO-OHARE  PTSUNNY   18   1  47 N14       30.24S WCI   4
CHICAGO-MIDWAY FLURRIES  21  13  71 N13       30.25R WCI   9
AURORA         SUNNY     16   5  62 NW18      30.26R WCI   0
LANSING*       LGT SNOW  19  10  69 NE14G20   30.23S WCI   6
JOLIET*        CLOUDY    18   5  56 N9        30.25S WCI   7
WAUKEGAN       SUNNY     16  -1  47 N12       30.25R WCI   3
DUPAGE AIRPORT CLOUDY    17   2  51 N14       30.24R WCI   3
KANKAKEE*      PTSUNNY   19  11  73 N10       30.24R WCI   7
WHEELING       MOSUNNY   18   0  45 N13       30.26S WCI   5
MORRIS*        CLOUDY    19  11  70 N7        30.25S WCI  10
ROMEOVILLE*    CLOUDY    18   6  59 N15       30.24S WCI   3
NORTHERLY ISL    N/A     17  12  80 N10         N/A  WCI   5
$$

LMZ740>746-262100-
SOUTHERN LAKE MICHIGAN

STATION/POSITION SKY/WX   TEMP    WIND        PRES    VSBY  WAVE
                          AIR SEA DIR/SP/G                  HT/PER
                          (F)     (DEG/KT/KT) (MB)    (MI)  (FT/S)
WAUKEGAN HARBOR            16     320/ 17/ 20   N/A
HARRISON CRIB              16     360/ 15/ 18   N/A
BURNHAM HARBOR             16      20/ 10/ 15   N/A
CALUMET HARBOR             18     340/ 10/ 15 1022.7R
MICHIGAN CITY              14      10/ 15/ 20   N/A
$$

ILZ025>027-034>036-040-047-049-050-058-095>099-262100-
WEST-CENTRAL ILLINOIS

CITY           SKY/WX    TMP DP  RH WIND       PRES   REMARKS
QUINCY         SUNNY     15   3  59 NW17      30.33R WCI  -1
GALESBURG*     CLOUDY    14   6  70 NW10      30.32R WCI   2
MACOMB*        CLOUDY    14   6  70 NW17      30.35R WCI  -3
JACKSONVILLE*  CLOUDY    20  11  66 NW14      30.30R WCI   7
PITTSFIELD*    MOSUNNY   19  10  65 N12       30.32R WCI   7
$$

ILZ028>032-037-038-041>044-048-051>054-059>061-262100-
CENTRAL ILLINOIS

CITY           SKY/WX    TMP DP  RH WIND       PRES   REMARKS
PONTIAC        SUNNY     19  12  73 N15       30.26R WCI   5
BLOOMINGTON    FLURRIES  18  12  77 N17       30.24R WCI   3
DECATUR        CLOUDY    21  14  74 N16       30.23R WCI   7
PEORIA         CLOUDY    19   7  59 N10       30.29R WCI   7
LACON*         CLOUDY    17   6  62 NW9       30.29R WCI   6
LINCOLN*       CLOUDY    23  14  70 N12       30.28R WCI  11
SPRINGFIELD    LGT SNOW  20  12  71 N15       30.28R WCI   6
TAYLORVILLE    FLURRIES  21  14  73 N16       30.26R WCI   7
$$

ILZ033-039-045-046-055>057-062-063-262100-
EAST-CENTRAL ILLINOIS

CITY           SKY/WX    TMP DP  RH WIND       PRES   REMARKS
CHAMPAIGN      FLURRIES  22  12  65 N17       30.21R WCI   8
DANVILLE*      CLOUDY    19  12  72 N15       30.17R WCI   5
RANTOUL*       LGT SNOW  22  15  75 N15       30.21R WCI   9
MATTOON        CLOUDY    22  14  71 N17       30.20R WCI   8
PARIS*         FLURRIES  23  14  68 N8G18     30.20R WCI  14
$$

ILZ079-100>102-262100-
SOUTHWEST ILLINOIS

CITY           SKY/WX    TMP DP  RH WIND       PRES   REMARKS
ALTON          CLOUDY    21  12  68 NW10G18   30.29R WCI  10
BELLEVILLE     CLOUDY    24  16  73 NW15      30.26R WCI  11
CAHOKIA*       CLOUDY    24  15  68 N15       30.28R WCI  11
SPARTA*        CLOUDY    24  16  73 N13       30.25R WCI  12
$$

ILZ064>066-069>071-074>076-080>082-084>086-088>090-092>094-262100-
SOUTH-CENTRAL ILLINOIS

CITY           SKY/WX    TMP DP  RH WIND       PRES   REMARKS
CARBONDALE     FLURRIES  26  18  71 N15       30.23R WCI  14
CAIRO*         CLOUDY    31  23  72 NW15G22   30.21R WCI  20
EFFINGHAM*     CLOUDY    24  14  65 NW13      30.22R WCI  12
MARION         CLOUDY    27  19  74 N12G20    30.22R WCI  16
MT. VERNON     CLOUDY    27  16  63 N9        30.21R WCI  17
CENTRALIA*     CLOUDY    26  17  67 N15       30.22R WCI  14
SALEM*         PTSUNNY   26  17  67 N15       30.22R WCI  14
METROPOLIS*    CLOUDY    29  25  82 NW12G20   30.18  HAZE    WCI  20
$$

ILZ067-068-072-073-078-083-087-091-262100-
SOUTHEAST ILLINOIS

CITY           SKY/WX    TMP DP  RH WIND       PRES   REMARKS
LAWRENCEVILLE  CLOUDY    27  15  61 N20       30.18R WCI  13
FLORA*         CLOUDY    25  17  73 N14       30.21R WCI  13
FAIRFIELD*     CLOUDY    26  18  70 N13G21    30.19R WCI  15
HARRISBURG*    FLURRIES  28  21  76 N10       30.21R WCI  18
ROBINSON*      CLOUDY    25  16  68 N12       30.20R WCI  14
CARMI*         FLURRIES  29  23  78 NW15      30.18R WCI  18
$$

ABBREVIATIONS USED IN REMARKS
   TC - TEMPERATURE IN CELSIUS
  WCI - WIND CHILL INDEX
   HX - HEAT INDEX
  VSB - VISIBILITY
$$



USA.gov is the U.S. government's official web portal to all federal, state and local government web resources and services.